This demonstration page uses our WeatherBlox Daily Observations layout. Learn more.

Left ArrowRight Arrow

41.86663, -103.66717

Hourly Observations for March 5, 2018

Temp ( °F °C ) Dew Point ( °F °C ) Humidity (%) Winds ( mph kmh ) Pressure ( in mb ) Visibility ( mi km ) Precip ( " mm )
12:53 am 00:53 Clear 27 -2.8 17 -8.3 66 66 NW 16 26 29.93 1014 10 16 N/A
1:53 am 01:53 Mostly Clear 26 -3.3 16 -8.9 66 66 WNW 16 26 29.95 1014 10 16 N/A
2:53 am 02:53 Mostly Cloudy 25 -3.9 16 -8.9 69 69 NW 18 30 29.95 1014 10 16 N/A
3:53 am 03:53 Mostly Cloudy 24 -4.4 16 -8.9 71 71 WNW 14 22 29.95 1014 10 16 N/A
4:53 am 04:53 Clear 23 -5 16 -8.9 74 74 WNW 16 26 29.98 1015 10 16 N/A
5:53 am 05:53 Clear 21 -6.1 16 -8.9 81 81 WNW 10 17 30.01 1016 10 16 N/A
6:53 am 06:53 Sunny 22 -5.6 17 -8.3 82 82 WNW 12 19 30.02 1017 10 16 N/A
7:53 am 07:53 Sunny 27 -2.8 16 -8.9 63 63 WNW 16 26 30.01 1016 10 16 N/A
8:53 am 08:53 Sunny 34 1.1 15 -9.4 46 46 WNW 22 35 29.98 1015 10 16 N/A
9:53 am 09:53 Mostly Sunny 39 3.9 11 -11.7 31 31 WNW 30 48 29.96 1015 10 16 N/A
10:53 am 10:53 Partly Cloudy 41 5 10 -12.2 28 28 NW 33 54 29.96 1014 10 16 N/A
11:53 am 11:53 Cloudy 39 3.9 7 -13.9 26 26 WNW 37 59 29.97 1015 10 16 N/A
12:53 pm 12:53 Cloudy 41 5 6 -14.4 23 23 WNW 36 57 29.95 1014 10 16 N/A
1:53 pm 13:53 Cloudy 40 4.4 10 -12.2 29 29 NW 43 69 29.95 1014 10 16 N/A
2:53 pm 14:53 Mostly Cloudy 41 5 7 -13.9 24 24 NW 36 57 29.95 1014 10 16 N/A
3:53 pm 15:53 Partly Cloudy 40 4.4 7 -13.9 25 25 NW 37 59 29.98 1015 10 16 N/A
4:53 pm 16:53 Partly Cloudy 39 3.9 6 -14.4 25 25 WNW 37 59 30.01 1016 10 16 N/A
5:53 pm 17:53 Clear 36 2.2 9 -12.8 32 32 NW 28 44 30.05 1018 10 16 N/A
6:53 pm 18:53 Clear 32 undefined 17 -8.3 54 54 NW 18 30 30.09 1019 10 16 N/A
7:53 pm 19:53 Clear 32 undefined 14 -10 47 47 NW 21 33 30.08 1019 10 16 N/A
8:53 pm 20:53 Clear 29 -1.7 15 -9.4 56 56 NW 14 22 30.09 1019 10 16 N/A
9:53 pm 21:53 Clear 27 -2.8 15 -9.4 61 61 WNW 10 17 30.09 1019 10 16 N/A
10:53 pm 22:53 Clear 28 -2.2 14 -10 56 56 WNW 12 19 30.08 1019 10 16 N/A
11:53 pm 23:53 Clear 27 -2.8 14 -10 58 58 WNW 13 20 30.09 1019 10 16 N/A

Powered by AerisWeather